Forside
METAR-TAF:

METAR-TAF

Lufthavne :

Rice Lake Regional Airport (Carl's Field)

Rice Lake, Wisconsin, USA

Breddekreds: 45-25-05N, længdekreds: 091-46-25W, højde: 337 m

Aktuelle vejr

Denne rapport blev lavet for 12 minutter siden, kl. 11:15 UTC
Vind 10 kt fra østsydøst
Temperatur 0°C
Fugtighed 74%
Tryk 1019 hPa
Sigt: 16.1 km
Overskyet i en højde af 5500 ft

METAR: KRPD 241115Z AUTO 12010KT 10SM OVC055 00/M04 A3009 RMK AO2 T10051039

Tid: 05:27 (11:27 UTC)


TAF: fraværende

Vejrobservationer og prognoser fra mere end 4000 lufthavne (METAR og TAF).

De gule og røde prikker repræsenterer de meteorologiske stationer.

Flyt musen over at se navnet på stationen.

Så klik over at se vejr observationer og prognoser.

At skifte det kort: Klik på de grønne knapper med et sort kors for at zoome ind; på den grønne knap med en bindestreg for at zoome ud; eller på de grønne pile for tilstødende kort.


METAR-TAF: